Miscellaneous Local Product
Issued by NWS North Platte, NE

Home | Current Version | Previous Version | Graphics & Text | Print | Product List | Glossary On
Versions: 1 2 3 4 5 6 7 8 9 10 11 12 13 14 15 16 17 18 19 20 21 22 23 24 25 26 27 28 29 30 31 32 33 34 35 36 37 38 39 40 41 42 43 44 45 46 47 48 49 50
262
AXUS43 KLBF 191210
MISLBF


WESTERN AND NORTH CENTRAL NEBRASKA HOURLY WEATHER ROUNDUP
NATIONAL WEATHER SERVICE NORTH PLATTE NE
600 AM CST SUN NOV 19 2017

NOTE: "FAIR" INDICATES FEW OR NO CLOUDS BELOW 12,000 FEET WITH NO
SIGNIFICANT WEATHER AND/OR OBSTRUCTIONS TO VISIBILITY.

NOTE: STATIONS NOT REPORTING VARIABLES SUCH AS SKY/WEATHER OR
PRESSURE ARE PROVIDED BY RAWS AND APRS NETWORKS AND ARE NOT UNDER
NATIONAL WEATHER SERVICE QUALITY CONTROL.

...OBSERVATIONS IN AND NEAR THE EASTERN PANHANDLE OF NEBRASKA...

CITY           SKY/WX    TMP DP  RH WIND       PRES   REMARKS
PINE RIDGE     CLEAR     21  16  81 W5        30.07F WCI  15
GORDON         FAIR      26  19  74 W5        30.07F WCI  20
CHADRON        CLOUDY    20  16  84 SW5       30.09F WCI  13
ALLIANCE       CLOUDY    12  10  92 S3        30.10F
SIDNEY         CLOUDY    20  14  77 W8        30.14F WCI  10
CRESCENT LAKE    N/A     25  15  65 SW6         N/A  WCI  18
$$

...OBSERVATIONS IN NORTHERN NEBRASKA AND FAR SOUTHERN SOUTH DAKOTA...

CITY           SKY/WX    TMP DP  RH WIND       PRES   REMARKS
WINNER         FAIR      30  20  66 SW8       30.08F WCI  22
VALENTINE      CLEAR     22  17  81 W7        30.09F WCI  13
THEDFORD       CLEAR     26  20  77 SW7       30.13F WCI  19
AINSWORTH      CLEAR     24  20  85 SW8       30.10S WCI  15
O`NEILL        CLEAR     22  20  93 SW6       30.13S WCI  14
ORD            CLEAR     22  18  85 NE3       30.15F
BROKEN BOW     CLEAR     26  18  71 CALM      30.14F
VALENTINE NWR    N/A     24  19  82 SW7         N/A  WCI  16
HALSEY           N/A     26  17  70 SW3         N/A
BUTTE            N/A     25  20  82 SW3         N/A
CHAMBERS         N/A     25  20  82 CALM        N/A
EWING            N/A     21  19  93 CALM        N/A
$$

...OBSERVATIONS IN SOUTHWEST NEBRASKA AND FAR NORTHEAST COLORADO...

CITY           SKY/WX    TMP DP  RH WIND       PRES   REMARKS
HOLYOKE        FAIR      21  16  79 W10       30.18S WCI  10
IMPERIAL       CLOUDY    20  15  81 W9        30.19F WCI   9
OGALLALA       CLOUDY    20  17  86 W9        30.17F WCI  10
NORTH PLATTE   CLOUDY    19  16  88 W6        30.18F WCI  11
MCCOOK         CLEAR     23  19  85 W9        30.21F WCI  13
LEXINGTON      CLOUDY    22  18  83 CALM      30.19F
STAPLETON        N/A     22  17  80 CALM        N/A
GOTHENBURG       N/A     22  17  79 CALM        N/A
CALLAWAY         N/A     23  17  78 W5          N/A  WCI  17
$$

...OBSERVATIONS IN CENTRAL LINCOLN COUNTY AREA...

CITY           SKY/WX    TMP DP  RH WIND       PRES   REMARKS
N.P. AIRPORT   CLOUDY    19  16  88 W6        30.18F WCI  11
N.P. DOWNTOWN    N/A     22  19  87 CALM        N/A
N.P. SOUTHEAST   N/A     22  17  81 CALM        N/A
N.P. HILLCREST   N/A     23  19  83 W3          N/A
$$

...SOME OBSERVATIONS FROM AROUND THE REGION...

CITY           SKY/WX    TMP DP  RH WIND       PRES   REMARKS
DENVER         CLOUDY    28  13  53 S7        30.16S WCI  21
LIMON          CLOUDY    10   8  92 NW5       30.19F WCI   2
ASPEN          CLOUDY    12   6  77 S6        30.32F WCI   3
LARAMIE        CLOUDY    21   9  59 VRB6      30.16F WCI  13
CASPER         CLOUDY    29  15  56 SW25G35   30.09F WCI  14
CHEYENNE       CLOUDY    32  11  41 W7        30.13F WCI  26
SCOTTSBLUFF    CLOUDY    20  12  71 CALM      30.13F
GRAND ISLAND   CLEAR     26  23  88 SW6       30.18F WCI  19
OMAHA          CLEAR     25  17  72 S3        30.20F
SIOUX FALLS    CLEAR     24  18  77 SW5       30.10F WCI  18
PIERRE         CLOUDY    27  22  81 SW13      30.03F WCI  16
RAPID CITY     CLOUDY    23  13  65 CALM      30.01F
BISMARCK       PTCLDY    23  20  88 SE3       29.95F
KANSAS CITY    CLEAR     28  23  81 NW5       30.25S WCI  23
HILL CITY      CLEAR     24  19  81 W8        30.24S WCI  15
WICHITA        CLEAR     28  22  78 CALM      30.28R
DODGE CITY     CLOUDY    26  15  63 SW7       30.27S WCI  18
OKLAHOMA CITY  CLEAR     34  24  67 CALM      30.32R
DALLAS         CLEAR     43  34  70 NW8       30.31R
AMARILLO       CLOUDY    26  14  60 SW12      30.31R WCI  16
$$




USA.gov is the U.S. government's official web portal to all federal, state and local government web resources and services.